EW6072 Weather Reports


time (UTC)temp
F
wind
direction
speed
knots
gust
knots
rain 1hr
in
rain 24hr
in
rain mn
in
humidity
%
barometer
mb
20260906071521 64 191 0.0 0.0 0.00 0.17 0.00 95 1010.2
20260906070019 64 190 0.0 0.0 0.00 0.17 0.00 95 1010.0
20260906064516 65 190 0.0 0.0 0.00 0.17 0.00 95 1010.4
20260906061511 65 190 0.0 0.0 0.00 0.17 0.00 95 1010.9
20260906060016 65 191 0.0 0.0 0.00 0.17 0.00 95 1011.1
20260906054509 65 191 0.0 0.0 0.00 0.17 0.00 94 1011.1
20260906051507 66 191 0.0 0.0 0.00 0.17 0.00 94 1011.0
20260906050018 66 190 0.0 0.0 0.00 0.17 0.00 94 1010.9
20260906044503 66 190 0.0 0.0 0.00 0.17 0.00 94 1011.1
20260906041601 66 190 0.0 0.0 0.00 0.17 0.17 94 1011.1
20260906040100 66 190 0.0 0.0 0.00 0.17 0.17 94 1011.2
20260906034600 66 191 0.0 0.0 0.00 0.17 0.17 94 1011.3
20260906031604 66 191 0.0 0.0 0.00 0.17 0.17 93 1011.3
20260906030058 66 190 0.0 0.0 0.00 0.17 0.17 93 1011.3
20260906024558 66 191 0.0 0.0 0.00 0.17 0.17 93 1011.2
20260906021658 67 191 0.0 0.0 0.00 0.17 0.17 92 1011.2
20260906014556 67 190 0.0 0.0 0.00 0.17 0.17 92 1011.2
20260906011555 67 190 0.0 0.0 0.00 0.17 0.17 92 1011.0
20260906010055 67 190 0.0 0.0 0.00 0.17 0.17 92 1010.8
20260906004556 67 191 0.0 0.0 0.00 0.17 0.17 91 1010.5
20260906001555 68 190 0.0 0.0 0.00 0.17 0.17 90 1010.0
20260906000054 69 190 0.0 0.0 0.00 0.17 0.17 89 1009.8
20260905234556 70 190 0.0 0.0 0.00 0.17 0.17 86 1010.0
20260905231553 71 191 0.0 0.0 0.00 0.32 0.17 84 1009.9
20260905230055 71 191 0.0 0.0 0.00 0.32 0.17 84 1009.9
20260905224603 72 252 0.0 0.0 0.00 0.32 0.17 84 1009.9
20260905221601 72 252 0.0 0.9 0.00 0.32 0.17 83 1009.8
20260905220104 72 115 0.0 0.9 0.00 0.32 0.17 85 1009.7
20260905214551 73 110 0.0 0.9 0.00 0.32 0.17 86 1009.7
20260905211612 73 185 0.0 0.9 0.00 0.32 0.17 84 1009.6
20260905210055 73 150 0.0 0.9 0.00 0.32 0.17 82 1009.8
20260905204555 73 112 0.0 0.9 0.00 0.32 0.17 83 1009.7
20260905201547 72 156 0.0 0.9 0.00 0.32 0.17 83 1009.9
20260905200054 71 167 0.0 4.3 0.01 0.32 0.17 85 1009.9
20260905194546 69 136 0.0 0.0 0.01 0.32 0.17 90 1010.0
20260905191546 68 136 0.0 0.9 0.01 0.32 0.17 94 1009.8
20260905190045 67 196 0.0 0.0 0.00 0.31 0.16 94 1009.8
20260905184545 66 196 0.0 0.9 0.00 0.31 0.16 94 1009.8
20260905181559 65 265 0.0 0.0 0.00 0.31 0.16 94 1010.4
20260905180038 66 203 0.0 0.0 0.08 0.31 0.16 94 1010.8
20260905174547 66 203 0.0 0.0 0.15 0.31 0.16 94 1011.3
20260905171543 66 202 0.0 0.0 0.15 0.31 0.16 91 1012.3
20260905170037 71 202 0.0 7.0 0.10 0.26 0.11 82 1012.7
20260905164537 76 339 0.0 0.9 0.00 0.16 0.01 83 1012.4
20260905161534 78 165 0.0 0.9 0.00 0.16 0.01 79 1011.7
20260905160059 79 227 0.0 0.9 0.00 0.16 0.01 78 1011.8
20260905154532 77 261 0.0 1.7 0.00 0.16 0.01 81 1012.1
20260905151534 78 252 0.0 1.7 0.00 0.16 0.01 81 1011.5
20260905150027 78 201 0.0 0.9 0.00 0.16 0.01 80 1011.6
20260905144525 77 202 0.0 0.9 0.00 0.16 0.01 80 1011.5
20260905141521 76 186 0.0 0.9 0.00 0.16 0.01 83 1011.8
20260905140018 75 189 0.0 0.9 0.01 0.16 0.01 84 1011.8
20260905134514 74 188 0.0 0.0 0.01 0.16 0.01 87 1011.8
20260905131507 71 188 0.0 0.0 0.01 0.16 0.01 93 1012.1
20260905130002 70 188 0.0 0.0 0.00 0.15 0.00 95 1012.2
20260905124601 68 188 0.0 0.0 0.00 0.15 0.00 96 1012.2
20260905121558 67 188 0.0 0.0 0.00 0.15 0.00 96 1012.2
20260905120115 67 188 0.0 0.0 0.00 0.15 0.00 96 1012.0
20260905114555 67 188 0.0 0.0 0.00 0.15 0.00 96 1011.8
20260905113053 66 188 0.0 0.0 0.00 0.15 0.00 96 1011.6
20260905111608 66 188 0.0 0.0 0.00 0.15 0.00 96 1011.5
20260905104548 66 188 0.0 0.0 0.00 0.15 0.00 96 1011.3
20260905103051 66 188 0.0 0.0 0.00 0.15 0.00 96 1011.3
20260905101548 66 188 0.0 0.0 0.00 0.15 0.00 96 1011.2
20260905094547 66 188 0.0 0.0 0.00 0.15 0.00 96 1011.0
20260905093046 66 188 0.0 0.0 0.00 0.15 0.00 96 1010.8
20260905091614 66 188 0.0 0.0 0.00 0.15 0.00 96 1010.9
20260905084542 67 188 0.0 0.0 0.00 0.15 0.00 96 1011.1
20260905083041 67 188 0.0 0.0 0.00 0.15 0.00 96 1011.2
20260905081540 67 188 0.0 0.0 0.00 0.15 0.00 96 1011.3
20260905074541 67 188 0.0 0.0 0.00 0.15 0.00 96 1011.8
20260905073037 67 188 0.0 0.0 0.00 0.15 0.00 96 1011.7